Laramie, WY

6:51 AM MDT on July 21, 2017 (GMT -0600)
Laramie Regional

Weather History for KLAR - September, 2013

Change the Weather History Date:

Monday, September 9, 2013

  Actual Average Record
Temperature  
Mean Temperature 57 °F 56 °F  
Max Temperature 61 °F 72 °F 84 °F (1988)
Min Temperature 52 °F 40 °F 20 °F (1962)
Degree Days  
Heating Degree Days 8 9  
Month to date heating degree days 9 69  
Since 1 July heating degree days 80 241  
Cooling Degree Days 0 0  
Month to date cooling degree days 24 0  
Year to date cooling degree days 162 66  
Growing Degree Days 6 (Base 50)    
Moisture  
Dew Point 51 °F    
Average Humidity 80    
Maximum Humidity 93    
Minimum Humidity 67    
Precipitation  
Precipitation 0.18 in 0.04 in 0.70 in (1969)
Month to date precipitation 0.73 0.34  
Year to date precipitation 7.06 8.49  
Sea Level Pressure  
Sea Level Pressure 29.95 in    
Wind  
Wind Speed 6 mph (NNW)    
Max Wind Speed 25 mph    
Max Gust Speed 31 mph    
Visibility 8 miles    
Events Rain , Thunderstorm    
T = Trace of Precipitation, MM = Missing Value Source: NWS Daily Summary

Daily Weather History Graph

Daily Weather History Graph

Search for Another Location

Airport or City:

Trip Planner

Search our weather history database for the weather conditions in past years. The results will help you decide how hot, cold, wet, or windy it might be!

Date:

Astronomy

Sep. 09, 2013 Rise Set
Actual Time 6:37 AM MDT 7:21 PM MDT
Civil Twilight 6:09 AM MDT 7:49 PM MDT
Nautical Twilight 5:36 AM MDT 8:22 PM MDT
Astronomical Twilight 5:01 AM MDT 8:56 PM MDT
Moon 11:05 AM MDT (9/9) 9:36 PM MDT (9/9)
Length of Visible Light 13h 40m
Length of Day
12h 44m
Waxing Crescent, 19% of the Moon is Illuminated
Sep 9
Waxing Crescent
Sep 12
First Quarter
Sep 19
Full
Sep 26
Last Quarter
Oct 4
New

Hourly Weather History & Observations

Time (MDT) Temp. Dew Point Humidity Pressure Visibility Wind Dir Wind Speed Gust Speed Precip Events Conditions
12:53 AM 55.0 °F 54.0 °F 96% 29.80 in 10.0 mi SSE 5.8 mph - 0.02 in   Clear
1:53 AM 55.0 °F 53.1 °F 93% 29.78 in 10.0 mi South 3.5 mph - N/A   Mostly Cloudy
2:53 AM 57.0 °F 52.0 °F 83% 29.78 in 10.0 mi West 5.8 mph - N/A   Overcast
3:53 AM 57.0 °F 51.1 °F 81% 29.81 in 10.0 mi WSW 15.0 mph - N/A   Clear
4:53 AM 55.9 °F 51.1 °F 84% 29.83 in 10.0 mi West 5.8 mph - N/A   Clear
5:53 AM 55.9 °F 51.1 °F 84% 29.82 in 10.0 mi WSW 6.9 mph - N/A   Clear
6:53 AM 55.0 °F 51.1 °F 86% 29.83 in 10.0 mi SW 5.8 mph - 0.00 in   Mostly Cloudy
7:53 AM 55.9 °F 51.1 °F 84% 29.85 in 10.0 mi North 4.6 mph - N/A   Scattered Clouds
8:53 AM 55.9 °F 52.0 °F 87% 29.87 in 10.0 mi ENE 4.6 mph - N/A   Overcast
9:53 AM 57.0 °F 54.0 °F 89% 29.88 in 10.0 mi NE 4.6 mph - 0.00 in   Overcast
10:53 AM 60.1 °F 54.0 °F 80% 29.87 in 10.0 mi Variable 3.5 mph - N/A   Scattered Clouds
11:53 AM 57.9 °F 54.0 °F 87% 29.87 in 3.0 mi NW 5.8 mph - 0.01 in Rain Light Rain
12:07 PM 57.2 °F 53.6 °F 88% 30.14 in 2.0 mi NW 3.5 mph - 0.03 in Rain Rain
12:20 PM 57.2 °F 53.6 °F 88% 30.14 in 4.0 mi Calm Calm - 0.04 in Rain Light Rain
12:53 PM 57.9 °F 54.0 °F 87% 29.88 in 9.0 mi East 6.9 mph - 0.04 in Rain Light Rain
1:10 PM 57.2 °F 55.4 °F 94% 30.14 in 10.0 mi NNE 10.4 mph - 0.00 in Rain Light Rain
1:25 PM 59.0 °F 53.6 °F 82% 30.13 in 10.0 mi North 11.5 mph - 0.00 in   Mostly Cloudy
1:31 PM 59.0 °F 53.6 °F 82% 30.13 in 10.0 mi NNE 10.4 mph - 0.00 in   Mostly Cloudy
1:41 PM 59.0 °F 53.6 °F 82% 30.13 in 10.0 mi North 13.8 mph - 0.00 in   Mostly Cloudy
1:53 PM 57.9 °F 53.1 °F 84% 29.85 in 10.0 mi North 13.8 mph - 0.00 in   Mostly Cloudy
2:18 PM 55.4 °F 50.0 °F 82% 30.13 in 5.0 mi NW 21.9 mph 31.1 mph 0.01 in Rain , Thunderstorm Light Rain
2:21 PM 55.4 °F 50.0 °F 82% 30.14 in 1.5 mi NW 24.2 mph 31.1 mph 0.05 in Rain , Thunderstorm Rain
2:29 PM 53.6 °F 51.8 °F 94% 30.13 in 0.8 mi NNW 19.6 mph 31.1 mph 0.10 in Rain , Thunderstorm Heavy Rain
2:36 PM 53.6 °F 50.0 °F 88% 30.14 in 2.0 mi NW 19.6 mph - 0.11 in Rain , Thunderstorm Light Rain
2:53 PM 52.0 °F 48.9 °F 89% 29.90 in 5.0 mi NNW 17.3 mph 26.5 mph 0.12 in Rain , Thunderstorm Light Rain
3:03 PM 53.6 °F 48.2 °F 82% 30.14 in 10.0 mi NNW 12.7 mph 21.9 mph 0.00 in   Overcast
3:53 PM 55.9 °F 48.9 °F 77% 29.88 in 10.0 mi North 6.9 mph - 0.01 in   Mostly Cloudy
4:53 PM 59.0 °F 48.0 °F 67% 29.87 in 10.0 mi NNE 8.1 mph - N/A   Clear
5:53 PM 59.0 °F 48.0 °F 67% 29.87 in 10.0 mi East 4.6 mph - N/A   Mostly Cloudy
6:53 PM 57.9 °F 48.0 °F 70% 29.90 in 10.0 mi North 4.6 mph - N/A   Overcast
7:53 PM 57.0 °F 48.9 °F 74% 29.91 in 10.0 mi Calm Calm - N/A   Mostly Cloudy
8:53 PM 55.9 °F 48.9 °F 77% 29.93 in 10.0 mi Calm Calm - N/A   Mostly Cloudy
9:53 PM 55.0 °F 50.0 °F 83% 29.93 in 10.0 mi SSE 4.6 mph - N/A   Mostly Cloudy
10:53 PM 54.0 °F 50.0 °F 86% 29.92 in 10.0 mi SSW 4.6 mph - N/A   Mostly Cloudy
11:53 PM 54.0 °F 50.0 °F 86% 29.93 in 10.0 mi SSW 3.5 mph - N/A   Overcast